GW2806 Weather Reports


Display with metric or nautical units.
time (UTC)temp
F
wind
direction
speed
MPH
gust
MPH
rain 1hr
in
rain 24hr
in
rain mn
in
humidity
%
barometer
mb
20260510190051 75 27 7.0 14.0 0.00 0.00 0.00 42 1016.6
20260510184541 74 135 4.0 13.0 0.00 0.00 0.00 37 1016.8
20260510183037 74 70 3.0 14.0 0.00 0.00 0.00 39 1016.8
20260510181536 74 77 5.0 16.0 0.00 0.00 0.00 40 1016.6
20260510180035 74 57 5.0 15.0 0.00 0.00 0.00 42 1017.0
20260510174544 74 50 3.0 12.0 0.00 0.00 0.00 45 1017.3
20260510173040 73 137 5.0 12.0 0.00 0.00 0.00 44 1017.5
20260510171542 73 114 6.0 16.0 0.00 0.00 0.00 45 1017.7
20260510170044 71 95 5.0 12.0 0.00 0.00 0.00 46 1017.6
20260510164544 71 110 5.0 13.0 0.00 0.00 0.00 48 1017.8
20260510163046 70 95 5.0 16.0 0.00 0.00 0.00 48 1017.8
20260510161541 70 126 5.0 20.0 0.00 0.00 0.00 46 1017.8
20260510160053 71 85 5.0 13.0 0.00 0.00 0.00 45 1017.7
20260510154536 71 71 6.0 15.0 0.00 0.00 0.00 45 1017.9
20260510153045 70 125 6.0 12.0 0.00 0.00 0.00 47 1017.8
20260510151543 70 103 6.0 15.0 0.00 0.00 0.00 51 1017.8
20260510150047 69 98 7.0 16.0 0.00 0.00 0.00 49 1017.8
20260510144551 69 64 5.0 14.0 0.00 0.00 0.00 52 1017.6
20260510143039 68 83 4.0 14.0 0.00 0.00 0.00 54 1017.6
20260510141544 66 97 3.0 15.0 0.00 0.00 0.00 55 1017.3
20260510140043 66 79 5.0 14.0 0.00 0.00 0.00 57 1017.4
20260510134545 65 113 4.0 12.0 0.00 0.00 0.00 60 1017.4
20260510133038 63 87 4.0 11.0 0.00 0.00 0.00 64 1017.5
20260510131543 62 90 3.0 9.0 0.00 0.00 0.00 68 1017.7
20260510130046 60 41 3.0 10.0 0.00 0.00 0.00 72 1017.5
20260510124545 58 75 2.0 8.0 0.00 0.00 0.00 79 1017.5
20260510123043 56 31 3.0 8.0 0.00 0.00 0.00 88 1017.4
20260510121537 53 43 1.0 7.0 0.00 0.00 0.00 92 1017.1
20260510120036 51 40 0.0 3.0 0.00 0.00 0.00 93 1017.0
20260510114536 48 0 0.0 0.0 0.00 0.00 0.00 93 1017.0
20260510113039 46 0 0.0 0.0 0.00 0.00 0.00 92 1016.8
20260510111603 44 0 0.0 0.0 0.00 0.00 0.00 92 1016.7
20260510110039 43 0 0.0 1.0 0.00 0.00 0.00 91 1016.4
20260510104543 43 0 0.0 0.0 0.00 0.00 0.00 91 1016.1
20260510103045 43 0 0.0 1.0 0.00 0.00 0.00 91 1015.9
20260510101548 43 0 0.0 0.0 0.00 0.00 0.00 91 1015.7
20260510100051 43 0 0.0 0.0 0.00 0.00 0.00 90 1015.7
20260510094540 43 0 0.0 0.0 0.00 0.00 0.00 90 1015.6
20260510093056 43 0 0.0 0.0 0.00 0.00 0.00 90 1015.6
20260510091537 43 0 0.0 0.0 0.00 0.00 0.00 90 1015.5
20260510090049 43 0 0.0 0.0 0.00 0.00 0.00 90 1015.3
20260510084544 44 0 0.0 0.0 0.00 0.00 0.00 89 1015.1
20260510083037 44 0 0.0 1.0 0.00 0.00 0.00 89 1015.1
20260510081538 44 0 0.0 1.0 0.00 0.00 0.00 89 1015.0
20260510080047 44 0 0.0 1.0 0.00 0.00 0.00 89 1014.9
20260510074546 45 0 0.0 1.0 0.00 0.00 0.00 89 1014.6
20260510073042 45 0 0.0 0.0 0.00 0.00 0.00 88 1014.6
20260510071548 45 0 0.0 0.0 0.00 0.00 0.00 88 1014.6
20260510070048 46 0 0.0 2.0 0.00 0.00 0.00 87 1014.7
20260510064558 46 0 0.0 0.0 0.00 0.00 0.00 87 1014.7
20260510063037 46 0 0.0 1.0 0.00 0.00 0.00 87 1014.7
20260510061536 46 0 0.0 1.0 0.00 0.00 0.00 86 1014.5
20260510060041 47 0 0.0 0.0 0.00 0.00 0.00 85 1014.6
20260510054535 47 0 0.0 0.0 0.00 0.00 0.00 84 1014.5
20260510053043 48 0 0.0 0.0 0.00 0.00 0.00 84 1014.5
20260510051536 48 0 0.0 0.0 0.00 0.00 0.00 84 1014.6
20260510050040 49 0 0.0 1.0 0.00 0.00 0.00 83 1014.5
20260510044552 49 0 0.0 0.0 0.00 0.00 0.00 83 1014.5
20260510043036 50 0 0.0 2.0 0.00 0.00 0.00 82 1014.4
20260510041535 50 0 0.0 2.0 0.00 0.00 0.00 81 1014.6
20260510040043 51 0 0.0 0.0 0.00 0.00 0.00 79 1014.4
20260510034541 51 0 0.0 1.0 0.00 0.00 0.00 78 1014.3
20260510033035 52 0 0.0 2.0 0.00 0.00 0.00 77 1014.4
20260510031538 53 0 0.0 2.0 0.00 0.00 0.00 76 1014.1
20260510030045 53 0 0.0 2.0 0.00 0.00 0.00 74 1014.1
20260510024542 54 0 0.0 1.0 0.00 0.00 0.00 72 1014.2
20260510023049 55 59 1.0 2.0 0.00 0.00 0.00 71 1014.2
20260510021536 55 0 0.0 4.0 0.00 0.00 0.00 70 1014.1
20260510020043 56 16 2.0 3.0 0.00 0.00 0.00 69 1013.9
20260510014545 57 7 0.0 2.0 0.00 0.00 0.00 66 1013.7
20260510013038 58 0 0.0 0.0 0.00 0.00 0.00 63 1013.3
20260510011552 59 0 0.0 0.0 0.00 0.00 0.00 62 1013.1
20260510010052 60 0 0.0 2.0 0.00 0.00 0.00 61 1013.0
20260510004549 61 45 0.0 2.0 0.00 0.00 0.00 60 1012.7
20260510003045 62 61 0.0 5.0 0.00 0.00 0.00 58 1012.7
20260510001536 63 12 1.0 4.0 0.00 0.00 0.00 56 1012.7
20260510000044 64 17 0.0 3.0 0.00 0.00 0.00 54 1012.4
20260509234545 65 63 3.0 9.0 0.00 0.00 0.00 53 1012.2
20260509233040 66 56 4.0 8.0 0.00 0.00 0.00 51 1012.0
20260509231539 66 134 3.0 9.0 0.00 0.00 0.00 50 1011.8
20260509230046 66 114 3.0 12.0 0.00 0.00 0.00 50 1011.9
20260509224543 66 79 5.0 11.0 0.00 0.00 0.00 48 1012.0
20260509223037 67 49 4.0 10.0 0.00 0.00 0.00 50 1012.0
20260509221536 67 107 5.0 12.0 0.00 0.00 0.00 49 1012.1
20260509220044 67 63 5.0 14.0 0.00 0.00 0.00 50 1012.1
20260509214543 67 99 4.0 12.0 0.00 0.00 0.00 49 1012.1
20260509213042 67 66 7.0 17.0 0.00 0.00 0.00 50 1012.0
20260509211543 66 86 5.0 12.0 0.00 0.00 0.00 50 1011.8
20260509210036 66 110 6.0 13.0 0.00 0.00 0.00 50 1011.7
20260509204543 65 83 6.0 14.0 0.00 0.00 0.00 50 1011.8
20260509203102 66 56 5.0 11.0 0.00 0.00 0.00 50 1011.6
20260509201541 66 113 4.0 10.0 0.00 0.00 0.00 53 1011.3
20260509200036 66 47 4.0 15.0 0.00 0.00 0.00 51 1011.4
20260509194536 66 68 4.0 14.0 0.00 0.00 0.00 53 1011.3
20260509193047 66 81 5.0 12.0 0.00 0.00 0.00 51 1011.2
20260509191554 66 92 8.0 16.0 0.00 0.00 0.00 47 1011.3